Battle Mountain, Nevada, United States (89820)
Lat: 40.64N, Lon: 116.93W
Wx Zone: NVZ036
Local Info
Past Weather Observations for Friday, July 25, 2014

NOTE: This archive is for the closest National Weather Service station to Battle Mountain. Information may differ from the station used for current weather conditions.

Click here for Long-term Archive

Time Weather Temperature Dewpoint Humidity Pressure Winds Precip Visibility
23:56
Clear
72°F / 22°C 28°F / -2°C 20% 30.06 in
(1018 mb)
NE 12.7 mph
(NE 20 kph)
- 10SM
22:56
Clear
61°F / 16°C 27°F / -3°C 27% 30.06 in
(1018 mb)
Calm - 10SM
21:56
Clear
64°F / 18°C 19°F / -7°C 18% 30.06 in
(1018 mb)
NW 4.6 mph
(NW 7 kph)
- 10SM
20:56
Clear
70°F / 21°C 19°F / -7°C 15% 30.06 in
(1018 mb)
Calm - 10SM
19:56
Clear
72°F / 22°C 19°F / -7°C 14% 30.04 in
(1017 mb)
NNW 3.5 mph
(NNW 6 kph)
- 10SM
18:56
Clear
82°F / 28°C 25°F / -4°C 12% 30.01 in
(1016 mb)
NW 9.2 mph
(NW 15 kph)
- 10SM
17:56
Clear
90°F / 32°C 23°F / -5°C 9% 30.01 in
(1016 mb)
NW 13.8 mph
(NW 22 kph)
- 10SM
16:56
Clear
91°F / 33°C 21°F / -6°C 8% 29.98 in
(1015 mb)
W 11.5 mph
(W 19 kph)
- 10SM
15:56
Clear
91°F / 33°C 21°F / -6°C 8% 30.01 in
(1016 mb)
WNW 13.8 mph
(WNW 22 kph)
- 10SM
14:56
Clear
91°F / 33°C 19°F / -7°C 7% 30.01 in
(1016 mb)
SSW 18.4 mph
(SSW 30 kph)
- 10SM
13:56
Clear
88°F / 31°C 25°F / -4°C 10% 30.04 in
(1017 mb)
Variable 4.6 mph
(Variable 7 kph)
- 10SM
12:56
Clear
88°F / 31°C 27°F / -3°C 11% 30.04 in
(1017 mb)
Variable 4.6 mph
(Variable 7 kph)
- 10SM
11:56
Clear
88°F / 31°C 25°F / -4°C 10% 30.06 in
(1018 mb)
Calm - 10SM
10:56
Clear
81°F / 27°C 23°F / -5°C 12% 30.06 in
(1018 mb)
ENE 8.1 mph
(ENE 13 kph)
- 10SM
09:56
Clear
81°F / 27°C 25°F / -4°C 13% 30.09 in
(1019 mb)
NE 11.5 mph
(NE 19 kph)
- 10SM
07:56
Clear
70°F / 21°C 25°F / -4°C 18% 30.09 in
(1019 mb)
NE 15 mph
(NE 24 kph)
- 10SM
05:56
Clear
63°F / 17°C 23°F / -5°C 22% 30.09 in
(1019 mb)
NE 10.4 mph
(NE 17 kph)
- 10SM
04:56
Clear
59°F / 15°C 23°F / -5°C 25% 30.09 in
(1019 mb)
NE 5.8 mph
(NE 9 kph)
- 10SM
03:56
Clear
61°F / 16°C 21°F / -6°C 22% 30.09 in
(1019 mb)
NE 10.4 mph
(NE 17 kph)
- 10SM
02:56
Clear
63°F / 17°C 21°F / -6°C 20% 30.09 in
(1019 mb)
NE 10.4 mph
(NE 17 kph)
- 10SM
01:56
Clear
63°F / 17°C 19°F / -7°C 19% 30.06 in
(1018 mb)
NE 12.7 mph
(NE 20 kph)
- 10SM
00:56
Clear
64°F / 18°C 18°F / -8°C 16% 30.09 in
(1019 mb)
NE 13.8 mph
(NE 22 kph)
- 10SM
Time Weather Temperature Dewpoint Humidity Pressure Winds Precip Visibility


Weather for websites

WeatherForYou.com, LLC is not responsible for any damages or problems caused by this service. Current weather conditions are obtained from the closest station including government and personal stations which may have varying degrees of accuracy. Weather forecasts are derived from the NOAA NDFD. Like all things, this site belongs to Jesus Christ... He just trusts me to maintain it. If you have any questions or comments email webmaster@weatherforyou.com

Copyright © 2014, WeatherForYou.com LLC. All rights reserved.